Weather History for Calgary Springbank, AB

Change the Weather History Date:

Monday, March 19, 2012

  Actual Average Record
Temperature  
Mean Temperature 30 °F -  
Max Temperature 41 °F 42 °F 53 °F (1997)
Min Temperature 18 °F 20 °F -5 °F (2002)
Degree Days  
Heating Degree Days 36    
Moisture  
Dew Point 15 °F    
Average Humidity 57    
Maximum Humidity 86    
Minimum Humidity 26    
Precipitation  
Precipitation 0.00 in - - ()
Sea Level Pressure  
Sea Level Pressure 29.67 in    
Wind  
Wind Speed 6 mph ()    
Max Wind Speed 13 mph    
Max Gust Speed 17 mph    
Visibility 17.3 miles    
Events      
Averages and records for this station are not official NWS values.
T = Trace of Precipitation, MM = Missing Value Source: Averaged Metar Reports

Daily Weather History Graph

Daily Weather History Graph

Search for Another Location

Airport:

Trip Planner

Search our weather history database for the weather conditions in past years. The results will help you decide how hot, cold, wet, or windy it might be!

Date:

Astronomy

Mar. 19, 2012 Rise Set
Actual Time 7:41 AM MDT 7:49 PM MDT
Civil Twilight 7:08 AM MDT 8:23 PM MDT
Nautical Twilight 6:29 AM MDT 9:02 PM MDT
Astronomical Twilight 5:48 AM MDT 9:42 PM MDT
Moon 6:10 AM MDT (3/19) 5:09 PM MDT (3/19)
Length of Visible Light 13h 14m
Length of Day
12h 08m
Waning Crescent, 8% of the Moon is Illuminated
Mar 19
Waning Crescent
Mar 22
New
Mar 30
First Quarter
Apr 6
Full
Apr 13
Last Quarter

Hourly Weather History & Observations

Time (MDT) Temp. Windchill Dew Point Humidity Pressure Visibility Wind Dir Wind Speed Gust Speed Precip Events Conditions
5:00 AM 19.4 °F 10.4 °F 15.8 °F 86% 29.73 in 15.0 mi NW 6.9 mph - N/A   Partly Cloudy
6:00 AM 20 °F - 16 °F 78% 29.73 in 10 mi NW 6.9 mph - -   Partly Cloudy
6:00 AM 19.4 °F 10.4 °F 15.8 °F 86% 29.73 in 10.0 mi NW 6.9 mph - N/A   Partly Cloudy
7:00 AM 19.4 °F 12.8 °F 15.8 °F 86% 29.73 in 10.0 mi NNW 4.6 mph - N/A   Scattered Clouds
8:00 AM 19.4 °F 14.3 °F 14.0 °F 80% 29.74 in 10.0 mi North 3.5 mph - N/A   Scattered Clouds
9:00 AM 21.2 °F 16.4 °F 17.6 °F 86% 29.73 in 20.0 mi North 3.5 mph - N/A   Mostly Cloudy
10:00 AM 26.6 °F 16.8 °F 21.2 °F 80% 29.73 in 20.0 mi NNW 10.4 mph - N/A   Mostly Cloudy
11:00 AM 30.2 °F 22.6 °F 21.2 °F 69% 29.73 in 20.0 mi North 8.1 mph - N/A   Mostly Cloudy
12:00 PM 34 °F - 19 °F 41% 29.68 in 19 mi NNW 9.2 mph - -   Scattered Clouds
12:00 PM 33.8 °F 25.3 °F 19.4 °F 56% 29.68 in 20.0 mi NNW 11.5 mph - N/A   Mostly Cloudy
1:00 PM 37.4 °F 32.1 °F 17.6 °F 45% 29.66 in 20.0 mi North 6.9 mph - N/A   Mostly Cloudy
2:00 PM 39.2 °F 34.2 °F 14.0 °F 36% 29.64 in 20.0 mi NW 6.9 mph - N/A   Mostly Cloudy
3:00 PM 39.2 °F 32.0 °F 14.0 °F 36% 29.60 in 20.0 mi NNE 11.5 mph 17.3 mph N/A   Mostly Cloudy
4:00 PM 39.2 °F 31.6 °F 15.8 °F 39% 29.62 in 20.0 mi NE 12.7 mph - N/A   Mostly Cloudy
5:00 PM 37.4 °F 29.3 °F 12.2 °F 36% 29.60 in 20.0 mi NNE 12.7 mph - N/A   Mostly Cloudy
6:00 PM 35 °F - 13 °F 26% 29.61 in 19 mi North 8.1 mph - -   Scattered Clouds
6:00 PM 35.6 °F 28.6 °F 12.2 °F 38% 29.61 in 20.0 mi North 9.2 mph - N/A   Mostly Cloudy
7:00 PM 33.8 °F 28.6 °F 10.4 °F 38% 29.62 in 20.0 mi North 5.8 mph - N/A   Mostly Cloudy
8:00 PM 32.0 °F 24.2 °F 10.4 °F 41% 29.62 in 20.0 mi North 9.2 mph - N/A   Mostly Cloudy
9:00 PM 26.6 °F 19.1 °F 12.2 °F 55% 29.65 in 15.0 mi WSW 6.9 mph - N/A   Scattered Clouds
10:00 PM 24.8 °F - 12.2 °F 59% 29.65 in 15.0 mi Calm Calm - N/A   Partly Cloudy